This is the latest recevied weather packets stored in our database for station/object DM5AO-10. If no packets are shown the sender has not sent any weather packets the latest 10 day(s).
| Time | Temp. | Humidity | Pressure | Rain* | Wind** | Luminosity | Snow |
|---|---|---|---|---|---|---|---|
| 1787839673 | 31.67° C | 32% | 1018.1 hPa | - | - | - | - |
| 1787838772 | 30.56° C | 35% | 1018 hPa | - | - | - | - |
| 1787837872 | 31.11° C | 35% | 1018.2 hPa | - | - | - | - |
| 1787836971 | 30.56° C | 35% | 1018.1 hPa | - | - | - | - |
| 1787836070 | 30° C | 33% | 1018 hPa | - | - | - | - |
| 1787835169 | 30.56° C | 36% | 1018.2 hPa | - | - | - | - |
| 1787834268 | 31.11° C | 34% | 1018.3 hPa | - | - | - | - |
| 1787833367 | 30.56° C | 35% | 1018.5 hPa | - | - | - | - |
| 1787832466 | 28.89° C | 36% | 1018.4 hPa | - | - | - | - |
| 1787831565 | 28.89° C | 37% | 1018.6 hPa | - | - | - | - |
| 1787830664 | 28.33° C | 39% | 1018.6 hPa | - | - | - | - |
| 1787829763 | 28.33° C | 36% | 1019 hPa | - | - | - | - |
| 1787828862 | 27.78° C | 39% | 1019.2 hPa | - | - | - | - |
| 1787827962 | 28.33° C | 36% | 1019.5 hPa | - | - | - | - |
| 1787827370 | 27.78° C | 37% | 1019.6 hPa | - | - | - | - |
| 1787826470 | 27.22° C | 38% | 1019.7 hPa | - | - | - | - |
| 1787825569 | 27.22° C | 39% | 1019.6 hPa | - | - | - | - |
| 1787824668 | 26.67° C | 41% | 1019.8 hPa | - | - | - | - |
| 1787823767 | 26.11° C | 43% | 1020.1 hPa | - | - | - | - |
| 1787822866 | 25.56° C | 44% | 1020.3 hPa | - | - | - | - |
| 1787821966 | 25° C | 45% | 1020.4 hPa | - | - | - | - |
| 1787821065 | 24.44° C | 46% | 1020.5 hPa | - | - | - | - |
| 1787820164 | 24.44° C | 47% | 1020.5 hPa | - | - | - | - |
| 1787819263 | 23.89° C | 47% | 1020.6 hPa | - | - | - | - |
| 1787818362 | 23.89° C | 48% | 1020.8 hPa | - | - | - | - |
* Rain since midnight (hover to see other rain measurements)
** Current wind speed in m/s (hover to see current wind gust speed)